Change the Weather History Date:

Sunday, December 16, 2012

  Actual Average (KCVG) Record (KCVG)
Temperature  
Mean Temperature 52 °F 34 °F  
Max Temperature 63 °F 41 °F 67 °F (1984)
Min Temperature 41 °F 26 °F -7 °F (1989)
Degree Days  
Heating Degree Days 13 31  
Month to date heating degree days 465  
Since 1 July heating degree days 1425  
Cooling Degree Days 0 0  
Month to date cooling degree days 0  
Year to date cooling degree days 1121  
Growing Degree Days 2 (Base 50)    
Moisture  
Dew Point 47 °F    
Average Humidity 80    
Maximum Humidity 96    
Minimum Humidity 60    
Precipitation  
Precipitation 0.00 in 0.10 in 1.50 in (2000)
Month to date precipitation 1.75  
Year to date precipitation 40.90  
Snow  
Snow 0.00 in 0.20 in 4.10 in (2010)
Month to date snowfall 2.0  
Since 1 July snowfall 2.8  
Snow Depth -    
Sea Level Pressure  
Sea Level Pressure 29.74 in    
Wind  
Wind Speed 3 mph (SW)    
Max Wind Speed 14 mph    
Max Gust Speed 22 mph    
Visibility 9 miles    
Events      
T = Trace of Precipitation, MM = Missing Value Source: NWS Daily Summary

Daily Weather History Graph

Daily Weather History Graph

Search for Another Location

Airport or City:

Trip Planner

Search our weather history database for the weather conditions in past years. The results will help you decide how hot, cold, wet, or windy it might be!

Date:

Astronomy

Dec. 16, 2012 Rise Set
Actual Time 7:51 AM EST 5:16 PM EST
Civil Twilight 7:21 AM EST 5:46 PM EST
Nautical Twilight 6:47 AM EST 6:20 PM EST
Astronomical Twilight 6:15 AM EST 6:52 PM EST
Moon 10:25 AM EST (12/16) 9:28 PM EST (12/16)
Length of Visible Light 10h 24m
Length of Day
9h 24m
Waxing Crescent, 16% of the Moon is Illuminated
Dec 16
Waxing Crescent
Dec 20
First Quarter
Dec 28
Full
Jan 4
Last Quarter
Jan 11
New

Hourly Weather History & Observations

Time (EST) Temp. Dew Point Humidity Pressure Visibility Wind Dir Wind Speed Gust Speed Precip Events Conditions
12:53 AM 55.0 °F 44.1 °F 67% 29.81 in 10.0 mi Calm Calm - N/A   Overcast
1:53 AM 55.0 °F 46.0 °F 72% 29.78 in 10.0 mi Calm Calm - N/A   Overcast
2:53 AM 54.0 °F 46.0 °F 75% 29.78 in 10.0 mi Calm Calm - N/A   Overcast
3:53 AM 54.0 °F 46.0 °F 75% 29.77 in 10.0 mi Calm Calm - N/A   Overcast
4:53 AM 52.0 °F 46.0 °F 80% 29.76 in 10.0 mi East 3.5 mph - N/A   Overcast
5:53 AM 53.1 °F 48.0 °F 83% 29.76 in 10.0 mi Calm Calm - N/A   Overcast
6:53 AM 52.0 °F 48.9 °F 89% 29.75 in 10.0 mi Calm Calm - N/A   Mostly Cloudy
7:25 AM 51.8 °F 48.2 °F 88% 29.75 in 10.0 mi Calm Calm - N/A   Overcast
7:53 AM 55.0 °F 51.1 °F 86% 29.76 in 10.0 mi South 4.6 mph - N/A   Overcast
8:53 AM 55.9 °F 52.0 °F 87% 29.75 in 10.0 mi South 3.5 mph - N/A   Mostly Cloudy
9:53 AM 59.0 °F 53.1 °F 81% 29.76 in 10.0 mi SW 6.9 mph - N/A   Partly Cloudy
10:32 AM 60.8 °F 53.6 °F 77% 29.76 in 10.0 mi SW 9.2 mph 21.9 mph N/A   Mostly Cloudy
10:53 AM 62.1 °F 53.1 °F 72% 29.76 in 10.0 mi SW 12.7 mph 17.3 mph N/A   Mostly Cloudy
11:29 AM 62.6 °F 51.8 °F 68% 29.75 in 10.0 mi WSW 13.8 mph 19.6 mph N/A   Scattered Clouds
11:53 AM 63.0 °F 50.0 °F 63% 29.73 in 10.0 mi SW 9.2 mph 19.6 mph N/A   Clear
12:53 PM 63.0 °F 48.9 °F 60% 29.70 in 10.0 mi SW 8.1 mph - N/A   Partly Cloudy
1:53 PM 62.1 °F 48.0 °F 60% 29.69 in 10.0 mi SW 9.2 mph - N/A   Partly Cloudy
2:53 PM 62.1 °F 48.9 °F 62% 29.68 in 10.0 mi SSW 6.9 mph - N/A   Scattered Clouds
3:53 PM 61.0 °F 48.9 °F 64% 29.68 in 10.0 mi SW 6.9 mph - N/A   Clear
5:53 PM 57.0 °F 48.9 °F 74% 29.69 in 10.0 mi Calm Calm - N/A   Mostly Cloudy
6:53 PM 55.9 °F 48.9 °F 77% 29.71 in 10.0 mi WSW 4.6 mph - N/A   Partly Cloudy
7:53 PM 48.9 °F 45.0 °F 86% 29.71 in 10.0 mi Calm Calm - N/A   Partly Cloudy
8:53 PM 45.0 °F 43.0 °F 93% 29.72 in 9.0 mi Calm Calm - N/A   Clear
9:41 PM 41.0 °F 39.2 °F 93% 29.73 in 1.8 mi Calm Calm - N/A   Clear
9:51 PM 41.0 °F 39.2 °F 93% 29.73 in 3.0 mi Calm Calm - N/A   Clear
9:53 PM 41.0 °F 39.9 °F 96% 29.74 in 3.0 mi Calm Calm - N/A   Partly Cloudy
10:31 PM 44.6 °F 42.8 °F 93% 29.74 in 9.0 mi Calm Calm - N/A   Mostly Cloudy
10:53 PM 45.0 °F 43.0 °F 93% 29.75 in 9.0 mi Calm Calm - N/A   Overcast
11:11 PM 44.6 °F 42.8 °F 93% 29.75 in 10.0 mi Calm Calm - N/A   Overcast
11:53 PM 44.1 °F 42.1 °F 93% 29.75 in 9.0 mi Calm Calm - N/A   Scattered Clouds